Sandpoint, ID

5:39 PM PDT on August 17, 2017 (GMT -0700)
Sandpoint

Weather History for KSZT - March, 2014

Change the Weather History Date:

Saturday, March 1, 2014

  Actual Average Record
Temperature  
Mean Temperature 11 °F -  
Max Temperature 14 °F 42 °F 57 °F (1968)
Min Temperature 8 °F 23 °F -5 °F (1922)
Degree Days  
Heating Degree Days 54    
Moisture  
Dew Point -4 °F    
Average Humidity 52    
Maximum Humidity 85    
Minimum Humidity 31    
Precipitation  
Precipitation 0.00 in - - ()
Sea Level Pressure  
Sea Level Pressure 29.98 in    
Wind  
Wind Speed 26 mph (NNE)    
Max Wind Speed 32 mph    
Max Gust Speed 45 mph    
Visibility 8 miles    
Events Snow    
Averages and records for this station are not official NWS values.
T = Trace of Precipitation, MM = Missing Value Source: NWS Daily Summary

Daily Weather History Graph

Daily Weather History Graph

Search for Another Location

Airport or City:

Trip Planner

Search our weather history database for the weather conditions in past years. The results will help you decide how hot, cold, wet, or windy it might be!

Date:

Astronomy

Mar. 01, 2014 Rise Set
Actual Time 6:27 AM PST 5:30 PM PST
Civil Twilight 5:56 AM PST 6:01 PM PST
Nautical Twilight 5:19 AM PST 6:38 PM PST
Astronomical Twilight 4:43 AM PST 7:14 PM PST
Moon 6:19 AM PST (3/1) 6:30 PM PST (3/1)
Length of Visible Light 12h 05m
Length of Day
11h 03m
New Moon, 0% of the Moon is Illuminated
Mar 1
New Moon
Mar 8
First Quarter
Mar 16
Full
Mar 23
Last Quarter
Mar 30
New

Hourly Weather History & Observations

Time (PST) Temp. Windchill Dew Point Humidity Pressure Visibility Wind Dir Wind Speed Gust Speed Precip Events Conditions
12:15 AM 14.0 °F -6.2 °F -4.0 °F 45% 29.94 in 10.0 mi NNE 27.6 mph 39.1 mph N/A   Overcast
12:35 AM 14.0 °F -6.8 °F -4.0 °F 45% 29.94 in 10.0 mi NNE 29.9 mph 40.3 mph N/A   Overcast
12:55 AM 14.0 °F -6.2 °F -5.8 °F 41% 29.94 in 10.0 mi NNE 27.6 mph 35.7 mph N/A   Overcast
1:15 AM 14.0 °F -6.2 °F -5.8 °F 41% 29.95 in 10.0 mi NNE 27.6 mph 36.8 mph N/A   Overcast
1:35 AM 14.0 °F -5.8 °F -5.8 °F 41% 29.95 in 10.0 mi NNE 26.5 mph 34.5 mph N/A   Overcast
1:55 AM 12.2 °F -6.7 °F -7.6 °F 41% 29.95 in 10.0 mi NNE 21.9 mph 38.0 mph N/A   Overcast
2:15 AM 12.2 °F -9.3 °F -7.6 °F 41% 29.94 in 10.0 mi NNE 29.9 mph 40.3 mph N/A   Overcast
2:35 AM 12.2 °F -7.5 °F -7.6 °F 41% 29.95 in 10.0 mi NNE 24.2 mph 39.1 mph N/A   Overcast
2:55 AM 12.2 °F -7.5 °F -7.6 °F 41% 29.95 in 10.0 mi NNE 24.2 mph 38.0 mph N/A   Overcast
3:15 AM 12.2 °F -8.6 °F -9.4 °F 38% 29.95 in 10.0 mi NNE 27.6 mph 40.3 mph N/A   Overcast
3:35 AM 12.2 °F -8.2 °F -9.4 °F 38% 29.95 in 10.0 mi NNE 26.5 mph 38.0 mph N/A   Overcast
3:55 AM 10.4 °F -11.7 °F -9.4 °F 41% 29.95 in 10.0 mi NNE 29.9 mph 40.3 mph N/A   Overcast
4:15 AM 10.4 °F -10.7 °F -11.2 °F 37% 29.95 in 10.0 mi NNE 26.5 mph 44.9 mph N/A   Overcast
4:35 AM 10.4 °F -10.3 °F -11.2 °F 37% 29.95 in 10.0 mi NNE 25.3 mph 41.4 mph N/A   Overcast
4:55 AM 10.4 °F -11.4 °F -13.0 °F 34% 29.95 in 10.0 mi NNE 28.8 mph 40.3 mph N/A   Overcast
5:15 AM 10.4 °F -11.7 °F -13.0 °F 34% 29.96 in 10.0 mi NNE 29.9 mph 42.6 mph N/A   Overcast
5:35 AM 10.4 °F -11.7 °F -13.0 °F 34% 29.95 in 10.0 mi NNE 29.9 mph 41.4 mph N/A   Overcast
5:55 AM 10.4 °F -12.0 °F -13.0 °F 34% 29.95 in 10.0 mi NNE 31.1 mph 41.4 mph N/A   Overcast
6:15 AM 10.4 °F -11.4 °F -14.8 °F 31% 29.95 in 10.0 mi NNE 28.8 mph 42.6 mph N/A   Overcast
6:35 AM 8.6 °F -14.5 °F -14.8 °F 34% 29.95 in 10.0 mi NNE 31.1 mph 41.4 mph N/A   Overcast
6:55 AM 8.6 °F -13.4 °F -14.8 °F 34% 29.96 in 10.0 mi NNE 27.6 mph 41.4 mph N/A   Overcast
7:15 AM 8.6 °F -14.5 °F -14.8 °F 34% 29.96 in 10.0 mi NNE 31.1 mph 44.9 mph N/A   Overcast
7:35 AM 8.6 °F -14.8 °F -14.8 °F 34% 29.96 in 10.0 mi NNE 32.2 mph 42.6 mph N/A   Overcast
7:55 AM 8.6 °F -14.1 °F -14.8 °F 34% 29.98 in 10.0 mi NNE 29.9 mph 40.3 mph N/A   Overcast
8:15 AM 8.6 °F -13.1 °F -13.0 °F 37% 29.99 in 10.0 mi NNE 26.5 mph 38.0 mph N/A   Overcast
8:35 AM 10.4 °F -12.3 °F -13.0 °F 34% 29.98 in 10.0 mi NNE 32.2 mph 40.3 mph N/A   Overcast
8:55 AM 10.4 °F -10.7 °F -13.0 °F 34% 29.99 in 10.0 mi North 26.5 mph 35.7 mph N/A   Overcast
9:15 AM 10.4 °F -11.0 °F -13.0 °F 34% 30.00 in 10.0 mi NNE 27.6 mph 38.0 mph N/A   Mostly Cloudy
9:35 AM 10.4 °F -11.0 °F -13.0 °F 34% 29.99 in 10.0 mi NNE 27.6 mph 36.8 mph N/A   Scattered Clouds
9:55 AM 10.4 °F -9.9 °F -11.2 °F 37% 30.00 in 10.0 mi NNE 24.2 mph 38.0 mph N/A   Scattered Clouds
10:15 AM 10.4 °F -11.7 °F -11.2 °F 37% 30.00 in 10.0 mi NNE 29.9 mph 38.0 mph N/A   Scattered Clouds
10:35 AM 12.2 °F -7.9 °F -9.4 °F 38% 30.01 in 10.0 mi NNE 25.3 mph 33.4 mph N/A   Scattered Clouds
10:55 AM 12.2 °F -8.2 °F -9.4 °F 38% 30.01 in 10.0 mi NNE 26.5 mph 34.5 mph N/A   Mostly Cloudy
11:15 AM 12.2 °F -7.1 °F -7.6 °F 41% 30.01 in 10.0 mi NNE 23.0 mph 34.5 mph N/A   Overcast
11:35 AM 12.2 °F -7.5 °F -7.6 °F 41% 30.01 in 10.0 mi North 24.2 mph 32.2 mph N/A   Overcast
11:55 AM 12.2 °F -7.1 °F -7.6 °F 41% 30.02 in 10.0 mi North 23.0 mph 32.2 mph N/A   Overcast
12:15 PM 12.2 °F -7.1 °F -4.0 °F 48% 30.02 in 4.0 mi North 23.0 mph 32.2 mph N/A Snow Light Snow
12:35 PM 12.2 °F -7.1 °F -0.4 °F 57% 30.02 in 4.0 mi NNE 23.0 mph 33.4 mph N/A Snow Light Snow
12:55 PM 10.4 °F -9.9 °F -0.4 °F 62% 30.00 in 3.0 mi NNE 24.2 mph 32.2 mph N/A Snow Light Snow
1:15 PM 12.2 °F -7.9 °F 1.4 °F 62% 30.00 in 3.0 mi NNE 25.3 mph 34.5 mph N/A Snow Light Snow
1:30 PM 12.2 °F -7.5 °F 1.4 °F 62% 30.00 in 1.8 mi NNE 24.2 mph 33.4 mph N/A Snow Light Snow
1:55 PM 12.2 °F -6.7 °F 1.4 °F 62% 30.00 in 5.0 mi NNE 21.9 mph 31.1 mph N/A   Haze
2:15 PM 12.2 °F -6.7 °F 1.4 °F 62% 30.01 in 3.0 mi NNE 21.9 mph 32.2 mph N/A Snow Light Snow
2:35 PM 12.2 °F -7.1 °F 1.4 °F 62% 30.01 in 5.0 mi NNE 23.0 mph 28.8 mph N/A Snow Light Snow
2:55 PM 12.2 °F -5.8 °F 1.4 °F 62% 30.02 in 4.0 mi NNE 19.6 mph 28.8 mph N/A Snow Light Snow
3:15 PM 12.2 °F -6.3 °F 3.2 °F 67% 30.01 in 3.0 mi NNE 20.7 mph 27.6 mph N/A Snow Light Snow
3:35 PM 12.2 °F -6.3 °F 3.2 °F 67% 30.01 in 4.0 mi NNE 20.7 mph 29.9 mph N/A Snow Light Snow
3:55 PM 12.2 °F -5.3 °F 3.2 °F 67% 30.01 in 10.0 mi NNE 18.4 mph 25.3 mph N/A   Overcast
4:15 PM 12.2 °F -4.8 °F 1.4 °F 62% 30.00 in 10.0 mi NNE 17.3 mph 24.2 mph N/A   Mostly Cloudy
4:35 PM 12.2 °F -5.8 °F 1.4 °F 62% 30.00 in 10.0 mi NNE 19.6 mph 25.3 mph N/A   Overcast
4:55 PM 12.2 °F -5.8 °F 1.4 °F 62% 30.00 in 10.0 mi NNE 19.6 mph 28.8 mph N/A   Overcast
5:15 PM 12.2 °F -6.7 °F 1.4 °F 62% 30.01 in 10.0 mi NNE 21.9 mph 28.8 mph N/A   Overcast
5:35 PM 12.2 °F -6.3 °F 1.4 °F 62% 30.01 in 10.0 mi NNE 20.7 mph 31.1 mph N/A   Overcast
5:55 PM 12.2 °F -5.3 °F 1.4 °F 62% 30.00 in 10.0 mi NNE 18.4 mph 26.5 mph N/A   Overcast
6:10 PM 12.2 °F -6.7 °F 1.4 °F 62% 30.01 in 5.0 mi NNE 21.9 mph 29.9 mph N/A Snow Light Snow
6:35 PM 12.2 °F -6.3 °F 3.2 °F 67% 30.01 in 4.0 mi NNE 20.7 mph 27.6 mph N/A Snow Light Snow
6:55 PM 12.2 °F -4.8 °F 3.2 °F 67% 30.02 in 3.0 mi NNE 17.3 mph 29.9 mph N/A Snow Light Snow
7:15 PM 12.2 °F -5.8 °F 3.2 °F 67% 30.02 in 5.0 mi NNE 19.6 mph 26.5 mph N/A Snow Light Snow
7:35 PM 12.2 °F -5.3 °F 3.2 °F 67% 30.01 in 3.0 mi NNE 18.4 mph 26.5 mph N/A Snow Light Snow
7:55 PM 10.4 °F -8.2 °F 3.2 °F 73% 30.00 in 3.0 mi NNE 19.6 mph 31.1 mph N/A Snow Light Snow
8:15 PM 10.4 °F -9.1 °F 3.2 °F 73% 30.00 in 4.0 mi NNE 21.9 mph 26.5 mph N/A Snow Light Snow
8:35 PM 12.2 °F -6.3 °F 3.2 °F 67% 30.00 in 5.0 mi NNE 20.7 mph 28.8 mph N/A   Haze
8:55 PM 12.2 °F -6.7 °F 1.4 °F 62% 30.00 in 10.0 mi NNE 21.9 mph 28.8 mph N/A   Overcast
9:15 PM 12.2 °F -7.5 °F 3.2 °F 67% 29.99 in 7.0 mi NNE 24.2 mph 31.1 mph N/A   Overcast
9:35 PM 12.2 °F -6.7 °F 3.2 °F 67% 29.99 in 7.0 mi NNE 21.9 mph 29.9 mph N/A   Overcast
9:55 PM 10.4 °F -9.9 °F 3.2 °F 73% 29.98 in 2.5 mi NNE 24.2 mph 31.1 mph N/A Snow Light Snow
10:15 PM 10.4 °F -9.5 °F 5.0 °F 79% 29.99 in 1.5 mi NE 23.0 mph 32.2 mph N/A Snow Light Snow
10:35 PM 10.4 °F -8.2 °F 5.0 °F 79% 29.99 in 1.5 mi NE 19.6 mph 27.6 mph N/A Snow Light Snow
10:55 PM 10.4 °F -8.6 °F 5.0 °F 79% 29.98 in 2.0 mi NE 20.7 mph 28.8 mph N/A Snow Light Snow
11:15 PM 10.4 °F -9.5 °F 5.0 °F 79% 29.98 in 1.0 mi NE 23.0 mph 29.9 mph N/A Snow Snow
11:35 PM 10.4 °F -9.1 °F 6.8 °F 85% 29.98 in 0.8 mi NE 21.9 mph 29.9 mph N/A Snow Snow
11:55 PM 10.4 °F -9.1 °F 6.8 °F 85% 29.97 in 1.5 mi NE 21.9 mph 27.6 mph N/A Snow Light Snow